| time (UTC) | temp F | wind direction | speed knots | gust knots | rain 1hr in | rain 24hr in | rain mn in | humidity % | barometer mb |
| 20260906072933 | 73 | 119 | 1.7 | 5.2 | 0.00 | 0.00 | 0.00 | 89 | 1016.4 |
| 20260906072433 | 73 | 75 | 1.7 | 5.2 | 0.00 | 0.00 | 0.00 | 89 | 1016.5 |
| 20260906071931 | 73 | 69 | 2.6 | 6.1 | 0.00 | 0.00 | 0.00 | 89 | 1016.5 |
| 20260906071430 | 73 | 89 | 1.7 | 6.1 | 0.00 | 0.00 | 0.00 | 89 | 1016.5 |
| 20260906070930 | 73 | 31 | 1.7 | 3.5 | 0.00 | 0.00 | 0.00 | 89 | 1016.6 |
| 20260906070431 | 73 | 91 | 2.6 | 5.2 | 0.00 | 0.00 | 0.00 | 89 | 1016.6 |
| 20260906065930 | 73 | 60 | 1.7 | 5.2 | 0.00 | 0.00 | 0.00 | 89 | 1016.7 |
| 20260906065434 | 73 | 57 | 1.7 | 5.2 | 0.00 | 0.00 | 0.00 | 89 | 1016.7 |
| 20260906064931 | 73 | 65 | 1.7 | 5.2 | 0.00 | 0.00 | 0.00 | 88 | 1016.8 |
| 20260906064434 | 73 | 48 | 1.7 | 5.2 | 0.00 | 0.00 | 0.00 | 88 | 1016.7 |
| 20260906063930 | 73 | 70 | 0.9 | 4.3 | 0.00 | 0.00 | 0.00 | 88 | 1016.7 |
| 20260906063432 | 73 | 74 | 0.9 | 3.5 | 0.00 | 0.00 | 0.00 | 88 | 1016.6 |
| 20260906062932 | 73 | 41 | 1.7 | 4.3 | 0.00 | 0.00 | 0.00 | 88 | 1016.7 |
| 20260906062430 | 73 | 45 | 1.7 | 4.3 | 0.00 | 0.00 | 0.00 | 88 | 1016.7 |
| 20260906061651 | 73 | 15 | 1.7 | 3.5 | 0.00 | 0.00 | 0.00 | 88 | 1016.8 |
| 20260906060931 | 74 | 60 | 1.7 | 4.3 | 0.00 | 0.00 | 0.00 | 88 | 1016.8 |
| 20260906060430 | 74 | 29 | 1.7 | 5.2 | 0.00 | 0.00 | 0.00 | 88 | 1016.8 |
| 20260906055931 | 74 | 39 | 1.7 | 5.2 | 0.00 | 0.00 | 0.00 | 88 | 1016.7 |
| 20260906055656 | 74 | 48 | 1.7 | 5.2 | 0.00 | 0.00 | 0.00 | 87 | 1016.7 |
| 20260906054932 | 74 | 48 | 1.7 | 3.5 | 0.00 | 0.00 | 0.00 | 87 | 1016.9 |
| 20260906054154 | 74 | 106 | 1.7 | 4.3 | 0.00 | 0.00 | 0.00 | 87 | 1016.7 |
| 20260906053430 | 74 | 25 | 1.7 | 4.3 | 0.00 | 0.00 | 0.00 | 87 | 1016.6 |
| 20260906052931 | 74 | 50 | 1.7 | 4.3 | 0.00 | 0.00 | 0.00 | 87 | 1016.5 |
| 20260906052653 | 74 | 50 | 1.7 | 4.3 | 0.00 | 0.00 | 0.00 | 87 | 1016.5 |
| 20260906051930 | 74 | 33 | 1.7 | 4.3 | 0.00 | 0.00 | 0.00 | 86 | 1016.6 |
| 20260906051431 | 74 | 33 | 1.7 | 5.2 | 0.00 | 0.00 | 0.00 | 86 | 1016.5 |
| 20260906050934 | 74 | 63 | 1.7 | 5.2 | 0.00 | 0.00 | 0.00 | 86 | 1016.6 |
| 20260906050431 | 74 | 67 | 0.9 | 3.5 | 0.00 | 0.00 | 0.00 | 86 | 1016.6 |
| 20260906045931 | 74 | 29 | 0.9 | 3.5 | 0.00 | 0.00 | 0.00 | 86 | 1016.5 |
| 20260906045657 | 74 | 39 | 0.9 | 3.5 | 0.00 | 0.00 | 0.00 | 86 | 1016.3 |
| 20260906044931 | 74 | 85 | 1.7 | 3.5 | 0.00 | 0.00 | 0.00 | 86 | 1016.2 |
| 20260906044430 | 74 | 55 | 1.7 | 4.3 | 0.00 | 0.00 | 0.00 | 86 | 1016.2 |
| 20260906043932 | 74 | 35 | 1.7 | 4.3 | 0.00 | 0.00 | 0.00 | 86 | 1016.2 |
| 20260906043432 | 74 | 73 | 1.7 | 3.5 | 0.00 | 0.00 | 0.00 | 86 | 1016.2 |
| 20260906042932 | 74 | 73 | 1.7 | 4.3 | 0.00 | 0.00 | 0.00 | 87 | 1016.2 |
| 20260906042432 | 74 | 20 | 0.9 | 4.3 | 0.00 | 0.00 | 0.00 | 87 | 1016.2 |
| 20260906041417 | 75 | 39 | 0.9 | 3.5 | 0.00 | 0.00 | 0.00 | 86 | 1016.2 |
| 20260906040642 | 75 | 49 | 1.7 | 3.5 | 0.00 | 0.00 | 0.00 | 85 | 1016.2 |
| 20260906035410 | 75 | 4 | 1.7 | 3.5 | 0.00 | 0.00 | 0.00 | 85 | 1016.2 |
| 20260906035131 | 75 | 27 | 1.7 | 3.5 | 0.00 | 0.00 | 0.00 | 85 | 1016.2 |
| 20260906034408 | 75 | 62 | 1.7 | 2.6 | 0.00 | 0.00 | 0.00 | 85 | 1016.0 |
| 20260906033905 | 75 | 19 | 0.9 | 2.6 | 0.00 | 0.00 | 0.00 | 85 | 1015.9 |
| 20260906033627 | 75 | 358 | 0.9 | 4.3 | 0.00 | 0.00 | 0.00 | 85 | 1015.9 |
| 20260906032905 | 75 | 64 | 1.7 | 4.3 | 0.00 | 0.00 | 0.00 | 85 | 1016.0 |
| 20260906032403 | 75 | 82 | 0.9 | 2.6 | 0.00 | 0.00 | 0.00 | 85 | 1015.9 |
| 20260906031903 | 76 | 38 | 0.9 | 4.3 | 0.00 | 0.00 | 0.00 | 85 | 1015.8 |
| 20260906031630 | 76 | 74 | 0.9 | 4.3 | 0.00 | 0.00 | 0.00 | 85 | 1015.7 |
| 20260906030902 | 76 | 356 | 0.9 | 2.6 | 0.00 | 0.00 | 0.00 | 85 | 1015.7 |
| 20260906030403 | 76 | 64 | 0.9 | 2.6 | 0.00 | 0.00 | 0.00 | 85 | 1015.7 |
| 20260906025903 | 76 | 63 | 0.9 | 3.5 | 0.00 | 0.00 | 0.00 | 85 | 1015.7 |
| 20260906025403 | 76 | 76 | 1.7 | 4.3 | 0.00 | 0.00 | 0.00 | 85 | 1015.7 |
| 20260906024903 | 76 | 47 | 2.6 | 5.2 | 0.00 | 0.00 | 0.00 | 85 | 1015.5 |
| 20260906024403 | 76 | 62 | 1.7 | 5.2 | 0.00 | 0.00 | 0.00 | 85 | 1015.6 |
| 20260906023903 | 76 | 62 | 1.7 | 4.3 | 0.00 | 0.00 | 0.00 | 85 | 1015.5 |
| 20260906023625 | 76 | 74 | 1.7 | 4.3 | 0.00 | 0.00 | 0.00 | 85 | 1015.5 |
| 20260906022854 | 76 | 89 | 1.7 | 3.5 | 0.00 | 0.00 | 0.00 | 84 | 1015.4 |
| 20260906022354 | 76 | 341 | 1.7 | 6.1 | 0.00 | 0.00 | 0.00 | 85 | 1015.4 |
| 20260906021853 | 76 | 53 | 0.9 | 6.1 | 0.00 | 0.00 | 0.00 | 85 | 1015.3 |
| 20260906021351 | 77 | 57 | 1.7 | 6.1 | 0.00 | 0.00 | 0.00 | 84 | 1015.2 |
| 20260906021119 | 77 | 55 | 1.7 | 7.0 | 0.00 | 0.00 | 0.00 | 84 | 1015.1 |
| 20260906020352 | 77 | 54 | 1.7 | 7.0 | 0.00 | 0.00 | 0.00 | 84 | 1015.0 |
| 20260906015850 | 77 | 15 | 1.7 | 6.1 | 0.00 | 0.00 | 0.00 | 84 | 1014.8 |
| 20260906014850 | 77 | 77 | 1.7 | 4.3 | 0.00 | 0.00 | 0.00 | 83 | 1014.7 |
| 20260906014350 | 77 | 30 | 1.7 | 4.3 | 0.00 | 0.00 | 0.00 | 83 | 1014.7 |
| 20260906013847 | 78 | 54 | 1.7 | 4.3 | 0.00 | 0.00 | 0.00 | 83 | 1014.5 |
| 20260906013348 | 78 | 342 | 1.7 | 4.3 | 0.00 | 0.00 | 0.00 | 83 | 1014.5 |
| 20260906013109 | 78 | 48 | 1.7 | 3.5 | 0.00 | 0.00 | 0.00 | 82 | 1014.5 |
| 20260906012348 | 78 | 38 | 1.7 | 4.3 | 0.00 | 0.00 | 0.00 | 82 | 1014.4 |
| 20260906011846 | 78 | 43 | 1.7 | 4.3 | 0.00 | 0.00 | 0.00 | 82 | 1014.4 |
| 20260906011347 | 78 | 351 | 0.9 | 3.5 | 0.00 | 0.00 | 0.00 | 82 | 1014.4 |
| 20260906010841 | 78 | 54 | 0.9 | 3.5 | 0.00 | 0.00 | 0.00 | 81 | 1014.4 |
| 20260906010341 | 79 | 74 | 1.7 | 3.5 | 0.00 | 0.00 | 0.00 | 81 | 1014.4 |
| 20260906005340 | 79 | 29 | 0.9 | 3.5 | 0.00 | 0.00 | 0.00 | 81 | 1014.2 |
| 20260906004839 | 79 | 77 | 0.9 | 4.3 | 0.00 | 0.00 | 0.00 | 81 | 1014.2 |
| 20260906004339 | 79 | 43 | 1.7 | 4.3 | 0.00 | 0.00 | 0.00 | 81 | 1014.2 |
| 20260906003838 | 79 | 55 | 0.9 | 5.2 | 0.00 | 0.00 | 0.00 | 80 | 1014.2 |
| 20260906003339 | 80 | 349 | 1.7 | 5.2 | 0.00 | 0.00 | 0.00 | 80 | 1014.2 |
| 20260906002838 | 80 | 96 | 1.7 | 4.3 | 0.00 | 0.00 | 0.00 | 80 | 1014.1 |
| 20260906002606 | 80 | 90 | 1.7 | 3.5 | 0.00 | 0.00 | 0.00 | 79 | 1014.2 |
| 20260906001836 | 80 | 60 | 1.7 | 6.1 | 0.00 | 0.00 | 0.00 | 79 | 1014.2 |
| 20260906001335 | 80 | 44 | 1.7 | 6.1 | 0.00 | 0.00 | 0.00 | 78 | 1014.2 |
| 20260906000833 | 81 | 32 | 1.7 | 6.1 | 0.00 | 0.00 | 0.00 | 78 | 1014.2 |
| 20260906000334 | 81 | 46 | 2.6 | 6.1 | 0.00 | 0.00 | 0.00 | 77 | 1014.1 |
| 20260905235836 | 81 | 103 | 2.6 | 8.7 | 0.00 | 0.00 | 0.00 | 78 | 1014.2 |
| 20260905235557 | 82 | 64 | 4.3 | 9.6 | 0.00 | 0.00 | 0.00 | 77 | 1014.1 |
| 20260905234832 | 82 | 49 | 4.3 | 9.6 | 0.00 | 0.00 | 0.00 | 78 | 1014.1 |
| 20260905234331 | 83 | 44 | 4.3 | 9.6 | 0.00 | 0.00 | 0.00 | 78 | 1014.1 |
| 20260905233830 | 83 | 305 | 3.5 | 9.6 | 0.00 | 0.00 | 0.00 | 78 | 1014.1 |
| 20260905233331 | 84 | 45 | 4.3 | 9.6 | 0.00 | 0.00 | 0.00 | 77 | 1014.0 |
| 20260905232835 | 84 | 34 | 4.3 | 9.6 | 0.00 | 0.00 | 0.00 | 76 | 1014.0 |
| 20260905232553 | 85 | 70 | 4.3 | 10.4 | 0.00 | 0.00 | 0.00 | 75 | 1014.0 |
| 20260905231821 | 85 | 351 | 4.3 | 10.4 | 0.00 | 0.00 | 0.00 | 75 | 1013.9 |
| 20260905231316 | 86 | 60 | 3.5 | 8.7 | 0.00 | 0.00 | 0.00 | 74 | 1013.8 |
| 20260905231043 | 86 | 57 | 3.5 | 7.0 | 0.00 | 0.00 | 0.00 | 74 | 1013.7 |
| 20260905230302 | 87 | 54 | 3.5 | 11.3 | 0.00 | 0.00 | 0.00 | 75 | 1013.7 |
| 20260905225801 | 87 | 12 | 4.3 | 11.3 | 0.00 | 0.00 | 0.00 | 73 | 1013.7 |
| 20260905225518 | 87 | 43 | 5.2 | 12.2 | 0.00 | 0.00 | 0.00 | 74 | 1013.6 |
| 20260905224745 | 87 | 92 | 5.2 | 12.2 | 0.00 | 0.00 | 0.00 | 73 | 1013.5 |
| 20260905224243 | 88 | 67 | 4.3 | 10.4 | 0.00 | 0.00 | 0.00 | 72 | 1013.5 |
| 20260905224006 | 89 | 54 | 4.3 | 10.4 | 0.00 | 0.00 | 0.00 | 71 | 1013.5 |
| 20260905223237 | 90 | 54 | 4.3 | 10.4 | 0.00 | 0.00 | 0.00 | 69 | 1013.3 |
| 20260905222736 | 91 | 50 | 3.5 | 9.6 | 0.00 | 0.00 | 0.00 | 67 | 1013.2 |
| 20260905222502 | 91 | 20 | 3.5 | 7.8 | 0.00 | 0.00 | 0.00 | 66 | 1013.2 |
| 20260905222009 | 91 | 5 | 3.5 | 7.8 | 0.00 | 0.00 | 0.00 | 67 | 1013.3 |
| 20260905221236 | 91 | 84 | 3.5 | 8.7 | 0.00 | 0.00 | 0.00 | 64 | 1013.3 |
| 20260905221000 | 91 | 66 | 4.3 | 8.7 | 0.00 | 0.00 | 0.00 | 65 | 1013.2 |
| 20260905220231 | 91 | 27 | 3.5 | 8.7 | 0.00 | 0.00 | 0.00 | 64 | 1013.3 |
| 20260905215731 | 91 | 294 | 2.6 | 7.8 | 0.00 | 0.00 | 0.00 | 65 | 1013.3 |
| 20260905215232 | 91 | 108 | 3.5 | 6.1 | 0.00 | 0.00 | 0.00 | 63 | 1013.3 |
| 20260905214952 | 91 | 43 | 2.6 | 6.1 | 0.00 | 0.00 | 0.00 | 63 | 1013.5 |
| 20260905214232 | 91 | 343 | 2.6 | 6.1 | 0.00 | 0.00 | 0.00 | 65 | 1013.5 |
| 20260905213731 | 91 | 5 | 3.5 | 9.6 | 0.00 | 0.00 | 0.00 | 65 | 1013.4 |
| 20260905213230 | 92 | 353 | 2.6 | 9.6 | 0.00 | 0.00 | 0.00 | 64 | 1013.4 |
| 20260905212731 | 92 | 259 | 2.6 | 5.2 | 0.00 | 0.00 | 0.00 | 62 | 1013.4 |
| 20260905212231 | 92 | 17 | 3.5 | 8.7 | 0.00 | 0.00 | 0.00 | 60 | 1013.4 |
| 20260905211731 | 91 | 9 | 3.5 | 8.7 | 0.00 | 0.00 | 0.00 | 61 | 1013.4 |
| 20260905211230 | 92 | 356 | 2.6 | 7.8 | 0.00 | 0.00 | 0.00 | 63 | 1013.4 |
| 20260905210731 | 92 | 83 | 2.6 | 5.2 | 0.00 | 0.00 | 0.00 | 63 | 1013.4 |
| 20260905210230 | 92 | 320 | 2.6 | 5.2 | 0.00 | 0.00 | 0.00 | 61 | 1013.5 |
| 20260905205230 | 92 | 241 | 2.6 | 7.0 | 0.00 | 0.00 | 0.00 | 66 | 1013.5 |
| 20260905204729 | 91 | 36 | 3.5 | 7.0 | 0.00 | 0.00 | 0.00 | 65 | 1013.5 |
| 20260905204230 | 91 | 82 | 3.5 | 8.7 | 0.00 | 0.00 | 0.00 | 65 | 1013.6 |
| 20260905203957 | 91 | 332 | 2.6 | 8.7 | 0.00 | 0.00 | 0.00 | 65 | 1013.6 |
| 20260905202728 | 91 | 54 | 2.6 | 7.0 | 0.00 | 0.00 | 0.00 | 67 | 1013.6 |
| 20260905202225 | 90 | 69 | 2.6 | 7.0 | 0.00 | 0.00 | 0.00 | 67 | 1013.7 |
| 20260905201727 | 91 | 56 | 2.6 | 6.1 | 0.00 | 0.00 | 0.00 | 66 | 1013.6 |
| 20260905201225 | 92 | 17 | 2.6 | 7.0 | 0.00 | 0.00 | 0.00 | 66 | 1013.7 |
| 20260905200725 | 91 | 43 | 2.6 | 7.8 | 0.00 | 0.00 | 0.00 | 66 | 1013.7 |
| 20260905195725 | 91 | 50 | 3.5 | 6.1 | 0.00 | 0.00 | 0.00 | 67 | 1013.9 |
| 20260905195226 | 91 | 85 | 2.6 | 6.1 | 0.00 | 0.00 | 0.00 | 67 | 1014.0 |
| 20260905194720 | 91 | 23 | 2.6 | 7.0 | 0.00 | 0.00 | 0.00 | 66 | 1014.1 |
| 20260905194220 | 91 | 101 | 2.6 | 7.0 | 0.00 | 0.00 | 0.00 | 67 | 1014.1 |
| 20260905193722 | 91 | 74 | 1.7 | 7.0 | 0.00 | 0.00 | 0.00 | 66 | 1014.1 |
| 20260905193219 | 91 | 307 | 1.7 | 4.3 | 0.00 | 0.00 | 0.00 | 67 | 1014.2 |
| 20260905192722 | 91 | 20 | 1.7 | 4.3 | 0.00 | 0.00 | 0.00 | 67 | 1014.2 |
| 20260905192446 | 90 | 334 | 1.7 | 4.3 | 0.00 | 0.00 | 0.00 | 69 | 1014.1 |
| 20260905191957 | 90 | 320 | 1.7 | 5.2 | 0.00 | 0.00 | 0.00 | 69 | 1014.1 |
| 20260905191219 | 90 | 304 | 1.7 | 5.2 | 0.00 | 0.00 | 0.00 | 69 | 1014.1 |
| 20260905190717 | 90 | 98 | 2.6 | 5.2 | 0.00 | 0.00 | 0.00 | 68 | 1014.1 |
| 20260905190215 | 90 | 83 | 2.6 | 5.2 | 0.00 | 0.00 | 0.00 | 70 | 1014.2 |
| 20260905185715 | 90 | 61 | 1.7 | 4.3 | 0.00 | 0.00 | 0.00 | 68 | 1014.4 |
| 20260905185216 | 89 | 57 | 1.7 | 4.3 | 0.00 | 0.00 | 0.00 | 70 | 1014.5 |
| 20260905184713 | 89 | 127 | 1.7 | 4.3 | 0.00 | 0.00 | 0.00 | 69 | 1014.7 |
| 20260905184213 | 89 | 332 | 1.7 | 7.0 | 0.00 | 0.00 | 0.00 | 69 | 1014.5 |
| 20260905183714 | 89 | 46 | 1.7 | 7.0 | 0.00 | 0.00 | 0.00 | 69 | 1014.5 |
| 20260905183214 | 89 | 64 | 1.7 | 6.1 | 0.00 | 0.00 | 0.00 | 69 | 1014.7 |
| 20260905182211 | 89 | 19 | 2.6 | 7.0 | 0.00 | 0.00 | 0.00 | 68 | 1014.8 |
| 20260905181711 | 89 | 339 | 1.7 | 5.2 | 0.00 | 0.00 | 0.00 | 68 | 1014.7 |
| 20260905181209 | 89 | 344 | 2.6 | 5.2 | 0.00 | 0.00 | 0.00 | 70 | 1014.7 |
| 20260905180709 | 89 | 303 | 1.7 | 5.2 | 0.00 | 0.00 | 0.00 | 69 | 1014.7 |
| 20260905180210 | 89 | 63 | 1.7 | 5.2 | 0.00 | 0.00 | 0.00 | 70 | 1014.5 |
| 20260905175939 | 89 | 69 | 1.7 | 4.3 | 0.00 | 0.00 | 0.00 | 70 | 1014.7 |
| 20260905175209 | 89 | 13 | 2.6 | 7.0 | 0.00 | 0.00 | 0.00 | 70 | 1014.5 |
| 20260905174711 | 88 | 43 | 2.6 | 7.0 | 0.00 | 0.00 | 0.00 | 72 | 1014.5 |
| 20260905174210 | 88 | 88 | 3.5 | 7.0 | 0.00 | 0.00 | 0.00 | 70 | 1014.5 |
| 20260905173709 | 88 | 76 | 2.6 | 7.0 | 0.00 | 0.00 | 0.00 | 71 | 1014.5 |
| 20260905173212 | 89 | 72 | 2.6 | 7.0 | 0.00 | 0.00 | 0.00 | 70 | 1014.5 |
| 20260905172713 | 88 | 59 | 2.6 | 7.0 | 0.00 | 0.00 | 0.00 | 72 | 1014.7 |
| 20260905172209 | 88 | 107 | 3.5 | 7.0 | 0.00 | 0.00 | 0.00 | 70 | 1014.7 |
| 20260905171717 | 88 | 326 | 2.6 | 7.0 | 0.00 | 0.00 | 0.00 | 71 | 1014.8 |
| 20260905171212 | 88 | 53 | 2.6 | 7.0 | 0.00 | 0.00 | 0.00 | 71 | 1014.9 |
| 20260905170712 | 88 | 48 | 2.6 | 7.0 | 0.00 | 0.00 | 0.00 | 73 | 1014.8 |
| 20260905170212 | 88 | 114 | 3.5 | 7.0 | 0.00 | 0.00 | 0.00 | 72 | 1014.8 |
| 20260905165929 | 88 | 344 | 2.6 | 7.0 | 0.00 | 0.00 | 0.00 | 73 | 1014.9 |
| 20260905165207 | 88 | 61 | 1.7 | 5.2 | 0.00 | 0.00 | 0.00 | 72 | 1014.9 |
| 20260905164707 | 89 | 57 | 1.7 | 4.3 | 0.00 | 0.00 | 0.00 | 72 | 1014.9 |
| 20260905164205 | 89 | 45 | 1.7 | 4.3 | 0.00 | 0.00 | 0.00 | 72 | 1015.0 |
| 20260905163929 | 88 | 353 | 1.7 | 4.3 | 0.00 | 0.00 | 0.00 | 73 | 1015.1 |
| 20260905163203 | 88 | 67 | 2.6 | 5.2 | 0.00 | 0.00 | 0.00 | 75 | 1015.0 |
| 20260905162703 | 88 | 102 | 2.6 | 5.2 | 0.00 | 0.00 | 0.00 | 74 | 1015.1 |
| 20260905162204 | 87 | 339 | 2.6 | 6.1 | 0.00 | 0.00 | 0.00 | 74 | 1015.0 |
| 20260905161704 | 87 | 40 | 2.6 | 7.0 | 0.00 | 0.00 | 0.00 | 74 | 1014.9 |
| 20260905161204 | 87 | 36 | 2.6 | 7.0 | 0.00 | 0.00 | 0.00 | 75 | 1014.9 |
| 20260905160702 | 87 | 105 | 1.7 | 6.1 | 0.00 | 0.00 | 0.00 | 76 | 1014.9 |
| 20260905160206 | 87 | 21 | 2.6 | 7.0 | 0.00 | 0.00 | 0.00 | 76 | 1014.9 |
| 20260905155703 | 87 | 334 | 2.6 | 7.0 | 0.00 | 0.00 | 0.00 | 78 | 1014.9 |
| 20260905155204 | 86 | 20 | 3.5 | 7.0 | 0.00 | 0.00 | 0.00 | 76 | 1014.8 |
| 20260905154705 | 86 | 49 | 2.6 | 7.0 | 0.00 | 0.00 | 0.00 | 76 | 1014.8 |
| 20260905154204 | 86 | 62 | 2.6 | 6.1 | 0.00 | 0.00 | 0.00 | 76 | 1014.7 |
| 20260905153702 | 86 | 83 | 2.6 | 4.3 | 0.00 | 0.00 | 0.00 | 77 | 1014.4 |
| 20260905153206 | 86 | 47 | 2.6 | 4.3 | 0.00 | 0.00 | 0.00 | 77 | 1014.5 |
| 20260905152703 | 86 | 48 | 1.7 | 4.3 | 0.00 | 0.00 | 0.00 | 76 | 1014.5 |
| 20260905152203 | 86 | 5 | 1.7 | 3.5 | 0.00 | 0.00 | 0.00 | 75 | 1014.5 |
| 20260905151702 | 86 | 2 | 0.9 | 3.5 | 0.00 | 0.00 | 0.00 | 75 | 1014.4 |
| 20260905151203 | 86 | 37 | 1.7 | 4.3 | 0.00 | 0.00 | 0.00 | 77 | 1014.5 |
| 20260905150704 | 86 | 21 | 2.6 | 6.1 | 0.00 | 0.00 | 0.00 | 75 | 1014.5 |
| 20260905150428 | 86 | 334 | 2.6 | 6.1 | 0.00 | 0.00 | 0.00 | 78 | 1014.3 |
| 20260905145702 | 86 | 330 | 2.6 | 6.1 | 0.00 | 0.00 | 0.00 | 77 | 1014.3 |
| 20260905145201 | 85 | 34 | 1.7 | 4.3 | 0.00 | 0.00 | 0.00 | 77 | 1014.3 |
| 20260905144701 | 85 | 351 | 1.7 | 4.3 | 0.00 | 0.00 | 0.00 | 77 | 1014.2 |
| 20260905144206 | 85 | 13 | 1.7 | 4.3 | 0.00 | 0.00 | 0.00 | 78 | 1014.3 |
| 20260905143702 | 85 | 21 | 1.7 | 3.5 | 0.00 | 0.00 | 0.00 | 79 | 1014.2 |
| 20260905143424 | 84 | 53 | 1.7 | 3.5 | 0.00 | 0.00 | 0.00 | 79 | 1014.1 |
| 20260905142701 | 84 | 77 | 1.7 | 3.5 | 0.00 | 0.00 | 0.00 | 80 | 1014.1 |
| 20260905142154 | 83 | 322 | 0.9 | 3.5 | 0.00 | 0.00 | 0.00 | 81 | 1014.1 |
| 20260905141648 | 83 | 72 | 1.7 | 4.3 | 0.00 | 0.00 | 0.00 | 82 | 1014.0 |
| 20260905141142 | 83 | 29 | 1.7 | 4.3 | 0.00 | 0.00 | 0.00 | 82 | 1014.0 |
| 20260905140640 | 82 | 317 | 1.7 | 4.3 | 0.00 | 0.00 | 0.00 | 82 | 1013.9 |
| 20260905140141 | 82 | 312 | 2.6 | 4.3 | 0.00 | 0.00 | 0.00 | 82 | 1013.8 |
| 20260905135642 | 82 | 20 | 1.7 | 3.5 | 0.00 | 0.00 | 0.00 | 82 | 1013.8 |
| 20260905135139 | 82 | 349 | 0.9 | 3.5 | 0.00 | 0.00 | 0.00 | 82 | 1013.9 |
| 20260905134639 | 82 | 3 | 0.9 | 1.7 | 0.00 | 0.00 | 0.00 | 83 | 1013.8 |
| 20260905134138 | 81 | 19 | 0.9 | 1.7 | 0.00 | 0.00 | 0.00 | 83 | 1013.8 |
| 20260905133636 | 81 | 279 | 0.9 | 1.7 | 0.00 | 0.00 | 0.00 | 83 | 1013.7 |
| 20260905133402 | 81 | 268 | 0.0 | 0.9 | 0.00 | 0.00 | 0.00 | 83 | 1013.7 |
| 20260905132634 | 81 | 196 | 0.0 | 0.9 | 0.00 | 0.00 | 0.00 | 84 | 1013.6 |
| 20260905132131 | 80 | 282 | 0.0 | 0.9 | 0.00 | 0.00 | 0.00 | 86 | 1013.5 |
| 20260905131630 | 80 | 281 | 0.0 | 0.9 | 0.00 | 0.00 | 0.00 | 87 | 1013.5 |
| 20260905131130 | 79 | 285 | 0.0 | 0.9 | 0.00 | 0.00 | 0.00 | 87 | 1013.5 |
| 20260905130630 | 79 | 349 | 0.0 | 0.9 | 0.00 | 0.00 | 0.00 | 88 | 1013.5 |
| 20260905130354 | 79 | 349 | 0.9 | 1.7 | 0.00 | 0.00 | 0.00 | 88 | 1013.4 |
| 20260905125631 | 78 | 29 | 0.0 | 1.7 | 0.00 | 0.00 | 0.00 | 89 | 1013.4 |
| 20260905125354 | 78 | 138 | 0.0 | 0.9 | 0.00 | 0.00 | 0.00 | 90 | 1013.3 |
| 20260905124634 | 77 | 139 | 0.0 | 0.0 | 0.00 | 0.00 | 0.00 | 91 | 1013.2 |
| 20260905124127 | 77 | 139 | 0.0 | 0.9 | 0.00 | 0.00 | 0.00 | 92 | 1013.2 |
| 20260905123627 | 76 | 139 | 0.0 | 0.9 | 0.00 | 0.00 | 0.00 | 93 | 1013.2 |
| 20260905123127 | 76 | 139 | 0.0 | 0.9 | 0.00 | 0.00 | 0.00 | 93 | 1013.2 |
| 20260905122624 | 76 | 139 | 0.0 | 0.9 | 0.00 | 0.00 | 0.00 | 93 | 1013.3 |
| 20260905122125 | 75 | 139 | 0.0 | 0.9 | 0.00 | 0.00 | 0.00 | 93 | 1013.2 |
| 20260905121626 | 75 | 139 | 0.0 | 0.9 | 0.00 | 0.00 | 0.00 | 93 | 1013.1 |
| 20260905121123 | 75 | 139 | 0.0 | 1.7 | 0.00 | 0.00 | 0.00 | 93 | 1012.9 |
| 20260905120623 | 75 | 157 | 0.0 | 1.7 | 0.00 | 0.00 | 0.00 | 93 | 1012.9 |
| 20260905120121 | 75 | 144 | 0.0 | 0.9 | 0.00 | 0.00 | 0.00 | 93 | 1012.8 |
| 20260905115620 | 75 | 135 | 0.0 | 0.9 | 0.00 | 0.00 | 0.00 | 93 | 1013.0 |
| 20260905115119 | 75 | 135 | 0.0 | 0.9 | 0.00 | 0.00 | 0.00 | 93 | 1013.0 |
| 20260905114618 | 75 | 70 | 0.0 | 0.9 | 0.00 | 0.00 | 0.00 | 93 | 1013.1 |
| 20260905114117 | 75 | 70 | 0.0 | 0.0 | 0.00 | 0.00 | 0.00 | 93 | 1013.0 |
| 20260905113617 | 75 | 69 | 0.0 | 0.0 | 0.00 | 0.00 | 0.00 | 93 | 1012.8 |
| 20260905113116 | 75 | 70 | 0.0 | 0.0 | 0.00 | 0.00 | 0.00 | 93 | 1012.7 |
| 20260905112111 | 75 | 69 | 0.0 | 0.9 | 0.00 | 0.00 | 0.00 | 93 | 1012.7 |
| 20260905111608 | 75 | 69 | 0.0 | 0.0 | 0.00 | 0.00 | 0.00 | 93 | 1012.6 |
| 20260905111107 | 75 | 69 | 0.0 | 0.9 | 0.00 | 0.00 | 0.00 | 93 | 1012.7 |
| 20260905110605 | 75 | 69 | 0.0 | 0.9 | 0.00 | 0.00 | 0.00 | 93 | 1012.6 |
| 20260905105600 | 75 | 69 | 0.0 | 0.0 | 0.00 | 0.00 | 0.00 | 93 | 1012.6 |
| 20260905105100 | 75 | 70 | 0.0 | 0.0 | 0.00 | 0.00 | 0.00 | 93 | 1012.5 |
| 20260905104554 | 75 | 70 | 0.0 | 0.0 | 0.00 | 0.00 | 0.00 | 93 | 1012.5 |
| 20260905104053 | 76 | 70 | 0.0 | 0.0 | 0.00 | 0.00 | 0.00 | 92 | 1012.5 |
| 20260905103551 | 76 | 70 | 0.0 | 0.0 | 0.00 | 0.00 | 0.00 | 92 | 1012.4 |
| 20260905103311 | 76 | 70 | 0.0 | 0.0 | 0.00 | 0.00 | 0.00 | 92 | 1012.5 |
| 20260905102812 | 76 | 70 | 0.0 | 0.0 | 0.00 | 0.00 | 0.00 | 93 | 1012.4 |
| 20260905102047 | 76 | 69 | 0.0 | 0.0 | 0.00 | 0.00 | 0.00 | 93 | 1012.5 |
| 20260905101546 | 76 | 69 | 0.0 | 0.0 | 0.00 | 0.00 | 0.00 | 93 | 1012.5 |
| 20260905101045 | 76 | 69 | 0.0 | 0.0 | 0.00 | 0.00 | 0.00 | 93 | 1012.6 |
| 20260905100803 | 76 | 69 | 0.0 | 0.0 | 0.00 | 0.00 | 0.00 | 93 | 1012.6 |
| 20260905100041 | 76 | 70 | 0.0 | 0.0 | 0.00 | 0.00 | 0.00 | 92 | 1012.6 |
| 20260905095539 | 76 | 70 | 0.0 | 0.0 | 0.00 | 0.00 | 0.00 | 92 | 1012.6 |
| 20260905095038 | 76 | 69 | 0.0 | 0.0 | 0.00 | 0.00 | 0.00 | 92 | 1012.7 |
| 20260905094538 | 76 | 70 | 0.0 | 0.0 | 0.00 | 0.00 | 0.00 | 92 | 1012.7 |
| 20260905094257 | 76 | 70 | 0.0 | 0.0 | 0.00 | 0.00 | 0.00 | 92 | 1012.7 |
| 20260905093536 | 76 | 70 | 0.0 | 0.0 | 0.00 | 0.00 | 0.00 | 91 | 1012.7 |
| 20260905093303 | 76 | 70 | 0.0 | 0.0 | 0.00 | 0.00 | 0.00 | 91 | 1012.7 |
| 20260905092758 | 77 | 70 | 0.0 | 0.0 | 0.00 | 0.00 | 0.00 | 90 | 1012.7 |
| 20260905092033 | 77 | 70 | 0.0 | 0.0 | 0.00 | 0.00 | 0.00 | 90 | 1012.8 |
| 20260905091531 | 77 | 70 | 0.0 | 0.9 | 0.00 | 0.00 | 0.00 | 90 | 1012.8 |
| 20260905091031 | 77 | 69 | 0.0 | 0.9 | 0.00 | 0.00 | 0.00 | 90 | 1012.9 |
| 20260905090753 | 77 | 70 | 0.0 | 0.0 | 0.00 | 0.00 | 0.00 | 90 | 1012.9 |
| 20260905090029 | 77 | 70 | 0.0 | 0.0 | 0.00 | 0.00 | 0.00 | 89 | 1012.9 |
| 20260905085531 | 78 | 70 | 0.0 | 0.0 | 0.00 | 0.00 | 0.00 | 89 | 1012.9 |
| 20260905085031 | 78 | 70 | 0.0 | 0.0 | 0.00 | 0.00 | 0.00 | 89 | 1012.9 |
| 20260905084531 | 78 | 70 | 0.0 | 0.9 | 0.00 | 0.00 | 0.00 | 89 | 1012.8 |
| 20260905084030 | 78 | 70 | 0.0 | 0.9 | 0.00 | 0.00 | 0.00 | 89 | 1012.9 |
| 20260905083757 | 78 | 69 | 0.0 | 0.9 | 0.00 | 0.00 | 0.00 | 89 | 1012.9 |
| 20260905083030 | 77 | 91 | 0.0 | 0.9 | 0.00 | 0.00 | 0.00 | 90 | 1012.9 |
| 20260905082532 | 77 | 92 | 0.0 | 0.0 | 0.00 | 0.00 | 0.00 | 90 | 1012.9 |
| 20260905082031 | 77 | 92 | 0.0 | 0.0 | 0.00 | 0.00 | 0.00 | 90 | 1012.9 |
| 20260905081530 | 77 | 92 | 0.0 | 0.0 | 0.00 | 0.00 | 0.00 | 90 | 1012.9 |
| 20260905081029 | 77 | 92 | 0.0 | 0.0 | 0.00 | 0.00 | 0.00 | 90 | 1012.9 |
| 20260905080528 | 77 | 92 | 0.0 | 0.0 | 0.00 | 0.00 | 0.00 | 90 | 1013.0 |
| 20260905080029 | 77 | 92 | 0.0 | 0.0 | 0.00 | 0.00 | 0.00 | 90 | 1013.0 |
| 20260905075529 | 77 | 92 | 0.0 | 0.0 | 0.00 | 0.00 | 0.00 | 89 | 1012.9 |
| 20260905075029 | 77 | 92 | 0.0 | 0.0 | 0.00 | 0.00 | 0.00 | 89 | 1012.9 |
| 20260905074529 | 78 | 91 | 0.0 | 0.0 | 0.00 | 0.00 | 0.00 | 89 | 1012.9 |
| 20260905074029 | 78 | 91 | 0.0 | 0.0 | 0.00 | 0.00 | 0.00 | 89 | 1013.0 |
| 20260905073524 | 77 | 91 | 0.0 | 0.0 | 0.00 | 0.00 | 0.00 | 89 | 1013.1 |